Location: Artiguedieu
(43.5000°N, 0.5454°E)
Time: 20:18:19
(UTC+00:00)

Transit 2A - Pass Details

Date: 29 July 2021
Orbit: 594 x 964 km, 66.7° (Epoch: 28 September)

Event Time Altitude Azimuth Distance (km) Brightness Sun altitude
Rises 15:37:00 0° 328° (NNW) 3,234 9.5 39.2°
Reaches altitude 10° 15:39:17 10° 328° (NNW) 2,360 8.9 38.8°
Maximum altitude 15:44:46 87° 240° (WSW) 857 7.0 37.8°
Drops below altitude 10° 15:50:48 10° 152° (SSE) 2,583 8.7 36.7°
Sets 15:53:24 0° 152° (SSE) 3,561 9.3 36.2°
